Regional Weather Roundup
Issued by NWS

Home | Current Version | Previous Version | Text Only | Print | Product List | Glossary On
Versions: 1 2 3 4 5 6 7 8 9 10 11 12 13 14 15 16 17 18 19 20 21 22 23 24 25 26 27 28 29 30 31 32 33 34 35 36 37 38 39 40 41 42 43 44 45 46 47 48 49 50
000
ASUS44 KJAN 301010
RWRMS

MISSISSIPPI HOURLY WEATHER ROUNDUP
NATIONAL WEATHER SERVICE JACKSON MS
500 AM CDT SUN AUG 30 2015

NOTE: "FAIR: INDICATES FEW OR NO CLOUDS BELOW 12,000 FEET WITH NO
SIGNIFICANT WEATHER AND/OR OBSTRUCTIONS TO VISIBILITY.

MSZ001>002-007>008-010>013-018>021-025>028-034>036-301100-
NORTHWEST MISSISSIPPI

CITY           SKY/WX    TMP DP  RH WIND       PRES   REMARKS
CLARKSDALE     FAIR      72  72 100 SE5       30.01R
CLEVELAND      FAIR      74  69  86 SE5       29.99S
GREENWOOD      CLEAR     73  68  84 SE6       30.01R
GREENVILLE     MOCLDY    71  66  84 SE5       29.98S
OLIVE BRANCH   PTCLDY    72  72 100 CALM      30.04R
OXFORD         FAIR      68  66  94 SE6       30.06R
TUNICA         PTSUNNY   72  70  94 SE3       30.01R
$$

MSZ003>006-009-014>017-022>024-029>033-037>039-301100-
NORTHEAST MISSISSIPPI

CITY           SKY/WX    TMP DP  RH WIND       PRES   REMARKS
COLUMBUS AFB   MOCLDY    72  69  92 SE6       30.05R
CORINTH        FAIR      68  64  88 SE3       30.06R
GOLDN TRIANGLE MOCLDY    72  64  78 SE12      30.04S
STARKVILLE     FAIR      70  68  94 E5        30.04S
TUPELO         CLEAR     70  67  90 SE6       30.05S
$$

MSZ040-058-301100-
CENTRAL MISSISSIPPI

CITY           SKY/WX    TMP DP  RH WIND       PRES   REMARKS
JACKSON INTL   CLEAR     70  65  84 SE5       30.01S
JACKSON HAWKNS CLEAR     70  64  81 SE3       30.02R
MERIDIAN KEY   CLOUDY    73  69  87 CALM      30.03F
MERIDIAN NAS   CLOUDY    71  67  87 SE3       30.04S
VICKSBURG      MOCLDY    68  65  90 CALM      30.01R
$$

MSZ059>079-301100-
SOUTH MISSISSIPPI

CITY           SKY/WX    TMP DP  RH WIND       PRES   REMARKS
BROOKHAVEN       N/A     64  64 100 CALM      30.04S
HATTIESBURG    PTCLDY    73  70  90 CALM      30.03S
MCCOMB         CLEAR     68  66  93 CALM      30.02S
NATCHEZ        PTCLDY    70  64  83 S3        30.02R
PINE BELT      PTCLDY    70  64  83 CALM      30.04S
$$

MSZ080>082-301100-
COASTAL MISSISSIPPI

CITY           SKY/WX    TMP DP  RH WIND       PRES   REMARKS
BILOXI         PTCLDY    71  69  91 N5        30.01S
PASCAGOULA     PTCLDY    68  68 100 CALM      30.01F FOG
GULFPORT       CLEAR     71  67  87 CALM      30.01S
$$


USA.gov is the U.S. government's official web portal to all federal, state and local government web resources and services.